Regional Weather Roundup
Issued by NWS Huntsville, AL

Home | Current Version | Previous Version | Text Only | Print | Product List | Glossary On
Versions: 1 2 3 4 5 6 7 8 9 10 11 12 13 14 15 16 17 18 19 20 21 22 23 24 25 26 27 28 29 30 31 32 33 34 35 36 37 38 39 40 41 42 43 44 45 46 47 48 49 50
000
ASUS44 KHUN 190210
RWRHUN

WEATHER ROUNDUP FOR THE TENNESSEE VALLEY
NATIONAL WEATHER SERVICE HUNTSVILLE AL
900 PM CDT THU SEP 18 2014

ALZ001>004-190300-
NORTHWEST ALABAMA

CITY           SKY/WX    TMP DP  RH WIND       PRES   REMARKS
COURTLAND HCN    N/A     70 N/A N/A CALM        N/A
RUSSELLVILLE     N/A     66 N/A N/A MISG        N/A
SHOALS AIRPORT MOCLDY    72  65  78 CALM      29.99R
SHOALS TVA RES   N/A     72 N/A N/A MISG        N/A
$$

ALZ005>007-016-190300-
NORTH CENTRAL ALABAMA

CITY           SKY/WX    TMP DP  RH WIND       PRES   REMARKS
CULLMAN AG STN   N/A     72 N/A N/A CALM        N/A
DECATUR AP     PTCLDY    71  64  78 N9        29.98R
HUNTSVILLE AP  PTCLDY    73  63  70 NE6       29.98R
HUN NWS/UAH      N/A     73  60  62 VRB2        N/A
MERIDIANVILLE  PTCLDY    66  61  82 CALM      30.00R
VINEMONT AP    FAIR      67  66  95 CALM      30.01S
$$

ALZ008>010-190300-
NORTHEAST ALABAMA

CITY           SKY/WX    TMP DP  RH WIND       PRES   REMARKS
ALBERTVILLE    MOCLDY    72  68  88 CALM      29.99S
FORT PAYNE     MOCLDY    68  61  77 CALM      30.00R
SCOTTSBORO AP    N/A     70  66  88 CALM      30.00R
SCOTTSBORO HCN   N/A     70 N/A N/A MISG        N/A
VALLEY HEAD      N/A     66 N/A N/A MISG        N/A
$$

TNZ076-096-097-190300-
SOUTHEASTERN MIDDLE TENNESSEE

CITY           SKY/WX    TMP DP  RH WIND       PRES   REMARKS
FAYETTEVILLE   CLEAR     66  57  72 NE6       30.02R
TULLAHOMA      MOCLDY    66  57  72 NE3       30.04R
WINCHESTER     CLOUDY    66  61  82 CALM      30.02R
$$

...SURROUNDING SITES...

CITY           SKY/WX    TMP DP  RH WIND       PRES   REMARKS
ATLANTA        MOCLDY    74  66  76 S5        29.99R
ANNISTON       CLOUDY    73  67  81 E3        29.98R
BIRMINGHAM     CLOUDY    77  64  64 CALM      29.99R
CHATTANOOGA    MOCLDY    70  59  68 CALM      30.01R
CORINTH        CLOUDY    72  66  83 CALM      29.99R
DALTON         MOCLDY    68  63  83 CALM      30.00R
GADSDEN        CLOUDY    73  63  68 CALM      29.98R
GOLDEN TRNGL   CLOUDY    70  64  83 SW6       30.00F
HALEYVILLE     FAIR      67  67 100 CALM      30.02R
JACKSON TN     CLOUDY    70  64  81 NE6       30.00R
LEWISBURG      FAIR      64  60  87 CALM      30.01R
MEMPHIS        CLOUDY    74  65  73 E7        29.99R
MURFREESBORO   FAIR      68  61  78 CALM      30.02
NASHVILLE      PTCLDY    68  60  75 N6        30.03R
OXFORD MS      FAIR      66  66 100 CALM      29.98F
ROME           MOCLDY    72  61  68 CALM      29.99R
SAVANNAH       MOCLDY    68  68 100 CALM      29.99R
TUPELO         RAIN      68  66  93 CALM      30.00R FOG
TUSCALOOSA     LGT RAIN  72  64  76 SE9       29.97F
$$

...GULF COAST WEATHER...

CITY           SKY/WX    TMP DP  RH WIND       PRES   REMARKS
GULFPORT       LGT RAIN  73  70  90 CALM      29.93S
PASCAGOULA     CLOUDY    73  70  90 CALM      29.92R
MOBILE         CLOUDY    71  70  96 S5        29.95R
GULF SHORES    CLOUDY    76  73  90 N3        29.92R
PENSACOLA      CLOUDY    79  74  84 N5        29.91S
DESTIN         CLOUDY    82  75  79 N3        29.93R
PANAMA CITY    CLOUDY    78  75  89 CALM      29.93R
APPALACHICOLA  CLOUDY    78  71  79 N5        29.92R
$$



USA.gov is the U.S. government's official web portal to all federal, state and local government web resources and services.